Regional Weather Roundup
Issued by NWS Charleston, WV

Home | Current Version | Previous Version | Graphics & Text | Print | Product List | Glossary On
Versions: 1 2 3 4 5 6 7 8 9 10 11 12 13 14 15 16 17 18 19 20 21 22 23 24 25 26 27 28
000
ASUS41 KRLX 180510
RWRRLX
West Virginia Regional Weather Roundup
National Weather Service Charleston WV
100 AM EDT FRI APR 18 2014

Note: "fair" indicates few or no clouds below 12,000 feet with no
significant weather and/or obstructions to visibility.

WVZ003-180600-
Northern Panhandle of West Virginia

CITY           SKY/WX    TMP DP  RH WIND       PRES   REMARKS
WHEELING       CLEAR     48  27  44 SE9       30.33F
$$

WVZ009-180600-
Northwest West Virginia

CITY           SKY/WX    TMP DP  RH WIND       PRES   REMARKS
PARKERSBURG    CLEAR     54  24  31 SE7       30.33F
$$

WVZ006-180600-
Western West Virginia

CITY           SKY/WX    TMP DP  RH WIND       PRES   REMARKS
HUNTINGTON     PTCLDY    57  25  29 SE8       30.28S
$$

WVZ015-180600-
West Central West Virginia

CITY           SKY/WX    TMP DP  RH WIND       PRES   REMARKS
CHARLESTON     CLEAR     55  24  30 SE8       30.31F
$$

WVZ031-180600-
North Central West Virginia

CITY           SKY/WX    TMP DP  RH WIND       PRES   REMARKS
CLARKSBURG     CLEAR     51  24  34 SE6       30.35F
MORGANTOWN     CLEAR     50  24  36 E6        30.36F
$$

WVZ035-042-045-180600-
South Central West Virginia

CITY           SKY/WX    TMP DP  RH WIND       PRES   REMARKS
BECKLEY        CLEAR     45  21  38 SE12G23   30.37F
BLUEFIELD      PTCLDY    47  20  34 VRB6G18   30.38F
LEWISBURG      PTCLDY    34  24  65 CALM      30.42F
$$

WVZ047-180600-
Northern Mountains of West Virginia

CITY           SKY/WX    TMP DP  RH WIND       PRES   REMARKS
ELKINS         PTCLDY    41  22  46 E5        30.39F
$$

WVZ052-180600-
Eastern Panhandle of West Virginia

CITY           SKY/WX    TMP DP  RH WIND       PRES   REMARKS
MARTINSBURG    CLEAR     40  30  67 E3        30.53F
PETERSBURG     PTCLDY    40  35  81 CALM      30.46F
$$



USA.gov is the U.S. government's official web portal to all federal, state and local government web resources and services.